[[{"header":{"parameterUnit":"m.s-1","parameterCategory":1,"la1":30.2991,"la2":30.254,"lo1":-89.0895,"lo2":-89.0444,"dy":0.0017,"dx":0.0017,"nx":28,"ny":28,"refTime":"2024-10-02T21:00:00:Z","depth":0,"parameterNumber":2,"parameterNumberName":"U-component_of_WINDS"},"data":[0,0,0,0,0,0,0,0,0,0,0,0,0,0,0,0,0,0,0,0,0,0,0,0,0,0,0,0,0,0,0,0,0,0,0,0,0,0,0,0,0,0,0,0,0,0,0,0,0,0,0,0,0,0,0,0,0,0,-6.4398,-6.4398,0,-6.4476,-6.4477,-6.4478,-6.4383,-6.4379,-6.4376,-6.4373,-6.4449,-6.4454,-6.4459,0,0,0,0,0,0,0,0,0,0,0,0,0,-6.4161,-6.4166,-6.4397,-6.4398,-6.4399,-6.4476,-6.4477,-6.4478,-6.4383,-6.4379,-6.4375,-6.4371,-6.4447,-6.4453,-6.446,0,0,0,0,0,0,0,0,0,0,0,0,0,-6.4254,-6.4168,-6.4397,-6.4362,-6.4359,-6.4476,-6.4477,-6.4478,-6.4384,-6.4379,-6.4374,-6.4369,-6.4445,-6.4453,-6.4461,-6.4615,0,0,-6.4485,-6.4488,0,0,0,0,0,0,0,0,-6.4249,-6.4263,-6.4366,-6.4364,-6.4362,-6.4414,-6.4422,-6.4524,-6.4386,-6.4375,-6.4372,-6.4366,-6.4441,-6.4449,-6.4475,-6.4618,-6.4622,-6.4486,-6.449,-6.4494,-6.4496,0,0,0,0,0,0,0,-6.4243,-6.4259,-6.4428,-6.4367,-6.4365,-6.434,-6.4348,-6.4441,-6.4436,-6.4375,-6.4369,-6.4379,-6.4439,-6.4468,-6.4476,-6.4623,-6.4485,-6.4492,-6.4497,-6.45,-6.4895,-6.49,0,0,0,0,0,0,-6.4241,-6.4254,-6.4426,-6.4431,-6.4292,-6.4349,-6.4357,-6.4403,-6.4435,-6.4435,-6.4384,-6.4375,-6.4457,-6.4467,-6.4479,-6.466,-6.4494,-6.4501,-6.4506,-6.4889,-6.4896,-6.4902,0,0,0,0,0,0,-6.4236,-6.4257,-6.4423,-6.4341,-6.436,-6.4359,-6.4411,-6.4407,-6.4436,-6.4442,-6.444,-6.4414,-6.4453,-6.4468,-6.4582,-6.4661,-6.4505,-6.4512,-6.4882,-6.4891,-6.4899,-6.5024,0,0,0,0,0,0,-6.423,-6.4256,-6.4316,-6.4343,-6.4365,-6.4526,-6.4416,-6.4412,-6.445,-6.4439,-6.447,-6.447,-6.445,-6.457,-6.459,-6.4669,-6.4518,-6.4875,-6.4886,-6.4896,-6.5013,-6.5036,-6.5055,0,0,0,0,0,-6.4222,-6.4347,-6.4319,-6.434,-6.4439,-6.453,-6.4543,-6.4519,-6.4457,-6.4516,-6.452,-6.4469,-6.465,-6.4583,-6.4604,-6.4687,-6.487,-6.4883,-6.4896,-6.5003,-6.5031,-6.5055,0,0,0,0,0,0,-6.4327,-6.435,-6.4319,-6.4457,-6.4493,-6.4514,-6.4587,-6.455,-6.4602,-6.459,-6.4557,-6.4565,-6.4686,-6.4698,-6.4623,-6.4837,-6.475,-6.4767,-6.4824,-6.4851,-6.4872,-6.4865,-6.4525,0,0,0,0,0,-6.4367,-6.444,-6.4456,-6.4576,-6.4596,-6.4589,-6.4628,-6.4607,-6.4642,-6.4656,-6.4668,-6.4703,-6.4767,-6.481,-6.487,-6.5015,-6.5019,-6.5083,-6.5104,-6.5122,-6.5136,-6.5212,-6.5239,-6.4944,-6.4944,-6.4944,0,0,-6.4448,-6.447,-6.4518,-6.4598,-6.4623,-6.4698,-6.4602,-6.4686,-6.4741,-6.4668,-6.4776,-6.4787,-6.4823,-6.4953,-6.5011,-6.4967,-6.5219,-6.5138,-6.5152,-6.5157,-6.5228,-6.5256,-6.5281,-6.4953,-6.4951,-6.495,0,0,-6.4635,-6.466,-6.4762,-6.479,-6.483,-6.4825,-6.485,-6.4878,-6.4882,-6.4991,-6.4937,-6.5002,-6.5115,-6.5142,-6.5171,-6.5371,-6.5325,-6.5391,-6.5501,-6.5576,-6.5599,-6.5619,-6.5687,-6.5713,-6.5406,-6.5407,-6.5407,0,-6.473,-6.4843,-6.4819,-6.4907,-6.4942,-6.4882,-6.4984,-6.5012,-6.5069,-6.5094,-6.5045,-6.5185,-6.5206,-6.534,-6.5389,-6.5416,-6.5441,-6.5385,-6.5598,-6.5618,-6.5637,-6.5701,-6.5727,-6.5414,-6.5413,-6.5413,-6.5412,0,-6.4957,-6.5037,-6.5114,-6.5172,-6.5217,-6.5312,-6.53,-6.5348,-6.5324,-6.5324,-6.5435,-6.5458,-6.5521,-6.5552,-6.5529,-6.5684,-6.5655,-6.5603,-6.5513,-6.5673,-6.5733,-6.5758,-6.5425,-6.5422,-6.542,-6.5418,0,0,-6.5209,-6.5254,-6.5282,-6.5308,-6.5348,-6.5408,-6.55,-6.5563,-6.5604,-6.5647,-6.5721,-6.5818,-6.577,-6.5803,-6.5783,-6.5849,-6.6002,-6.5788,-6.5788,-6.5824,-6.6171,-6.6208,-6.6237,-6.5974,-6.5979,-6.5982,-6.6167,0,-6.5393,-6.5553,-6.5535,-6.5687,-6.5758,-6.5703,-6.5783,-6.5816,-6.5819,-6.5879,-6.5882,-6.5951,-6.5884,-6.5903,-6.5966,-6.597,-6.6071,-6.5957,-6.604,-6.6043,-6.6029,-6.6269,-6.6308,-6.6481,-6.6191,-6.6195,-6.6198,0,-6.5629,-6.5681,-6.5841,-6.5871,-6.59,-6.5972,-6.6028,-6.6087,-6.6123,-6.6121,-6.6159,-6.6127,-6.6217,-6.613,-6.6253,-6.6176,-6.6209,-6.6217,-6.6223,-6.6226,-6.6128,-6.6276,-6.6536,-6.6561,-6.6235,-6.6232,-6.623,0,-6.5793,-6.5904,-6.6013,-6.6037,-6.6074,-6.6126,-6.6144,-6.6175,-6.6214,-6.6263,-6.6288,-6.6347,-6.6378,-6.6424,-6.6409,-6.6347,-6.6534,-6.6445,-6.6532,-6.6533,-6.6571,-6.6568,-6.6836,-6.6599,-6.6598,-6.6598,-6.6597,0,-6.5999,-6.6098,-6.6087,-6.6154,-6.6262,-6.6241,-6.6349,-6.636,-6.6388,-6.6455,-6.6412,-6.6475,-6.6453,-6.6515,-6.6503,-6.6605,-6.6621,-6.662,-6.6615,-6.6622,-6.6621,-6.664,-6.6626,-6.6605,-6.6603,-6.6602,-6.6601,0,-6.6199,-6.6196,-6.6311,-6.6338,-6.6347,-6.6426,-6.6449,-6.6511,-6.6512,-6.6597,-6.6615,-6.6616,-6.6687,-6.6677,-6.6755,-6.6748,-6.6874,-6.6857,-6.6862,-6.6857,-6.6943,-6.6934,-6.723,-6.7266,-6.7009,-6.7011,-6.7013,0,-6.6329,-6.6404,-6.644,-6.6483,-6.6505,-6.6574,-6.6614,-6.6596,-6.6639,-6.6686,-6.6742,-6.6809,-6.6861,-6.6977,-6.6983,-6.7043,-6.7024,-6.7124,-6.7032,-6.7036,-6.7021,-6.7016,-6.7022,-6.714,-6.7143,-6.7146,-6.7148,0,-6.6559,-6.6554,-6.6614,-6.6675,-6.6724,-6.677,-6.6812,-6.6849,-6.6834,-6.6885,-6.6957,-6.6998,-6.7079,-6.7145,-6.7202,-6.7218,-6.718,-6.7177,-6.72,-6.7205,-6.7204,-6.7203,-6.6908,-6.7169,-6.7167,-6.7166,-6.7164,-6.7163,-6.6726,-6.6789,-6.6825,-6.6893,-6.6923,-6.6963,-6.7022,-6.7032,-6.7092,-6.7157,-6.7143,-6.7224,-6.7258,-6.733,-6.7353,-6.7415,-6.7378,-6.7412,-6.7419,-6.7427,-6.7436,-6.7198,-6.7425,-6.7425,-6.7424,-6.7424,-6.7423,0,-6.6951,-6.6971,-6.7035,-6.7095,-6.7149,-6.7112,-6.7156,-6.7202,-6.7275,-6.731,-6.7363,-6.7446,-6.7511,-6.7523,-6.7584,-6.7631,-6.7615,-6.7648,-6.7642,-6.7646,-6.7467,-6.744,-6.766,-6.766,-6.766,-6.7659,-6.7659,-6.7659,-6.7074,-6.7179,-6.7179,-6.7298,-6.7317,-6.7397,-6.7426,-6.7462,-6.749,-6.7585,-6.7639,-6.7647,-6.7673,-6.7736,-6.7793,-6.7795,-6.7818,-6.7857,-6.7851,-6.7683,-6.7659,-6.7636,-6.761,-6.7863,-6.7863,-6.8025,-6.8026,-6.8028]},{"header":{"parameterUnit":"m.s-1","parameterCategory":1,"la1":30.2991,"la2":30.254,"lo1":-89.0895,"lo2":-89.0444,"dy":0.0017,"dx":0.0017,"nx":28,"ny":28,"refTime":"2024-10-02T21:00:00:Z","depth":0,"parameterNumber":3,"parameterNumberName":"V-component_of_WINDS"},"data":[0,0,0,0,0,0,0,0,0,0,0,0,0,0,0,0,0,0,0,0,0,0,0,0,0,0,0,0,0,0,0,0,0,0,0,0,0,0,0,0,0,0,0,0,0,0,0,0,0,0,0,0,0,0,0,0,0,0,1.6833,1.6834,0,1.687,1.6871,1.6871,1.69,1.6901,1.6901,1.6901,1.6938,1.6938,1.6939,0,0,0,0,0,0,0,0,0,0,0,0,0,1.6786,1.6787,1.6833,1.6834,1.6834,1.687,1.6871,1.6871,1.69,1.6901,1.6901,1.6901,1.6937,1.6938,1.6939,0,0,0,0,0,0,0,0,0,0,0,0,0,1.6813,1.6787,1.6833,1.6853,1.6855,1.687,1.6871,1.6871,1.69,1.6901,1.6901,1.6902,1.6937,1.6938,1.6939,1.6936,0,0,1.6942,1.6943,0,0,0,0,0,0,0,0,1.6811,1.6815,1.685,1.6852,1.6854,1.6881,1.6867,1.6893,1.69,1.6883,1.6901,1.6902,1.6918,1.6921,1.6927,1.6938,1.694,1.6942,1.6943,1.6943,1.6944,0,0,0,0,0,0,0,1.6809,1.6813,1.6848,1.685,1.6853,1.6859,1.6864,1.6872,1.6898,1.6885,1.6887,1.6891,1.692,1.6926,1.6928,1.694,1.6942,1.6943,1.6944,1.6944,1.6949,1.6949,0,0,0,0,0,0,1.6805,1.6811,1.6847,1.6849,1.6833,1.686,1.6865,1.6872,1.6898,1.6902,1.6891,1.6892,1.6924,1.6927,1.6929,1.6927,1.6943,1.6944,1.6945,1.695,1.6949,1.6949,0,0,0,0,0,0,1.6804,1.6808,1.6845,1.6831,1.6836,1.686,1.6868,1.6873,1.6879,1.6902,1.6907,1.6892,1.6924,1.6928,1.6934,1.6928,1.6945,1.6946,1.695,1.695,1.6949,1.6922,0,0,0,0,0,0,1.6802,1.6807,1.6807,1.6831,1.6837,1.685,1.6868,1.6873,1.6881,1.6883,1.6905,1.6909,1.6925,1.6932,1.6935,1.693,1.6947,1.6951,1.695,1.6949,1.6924,1.6921,1.6918,0,0,0,0,0,1.68,1.6798,1.6807,1.6811,1.6837,1.685,1.6853,1.6872,1.688,1.688,1.6894,1.6908,1.6929,1.6933,1.6936,1.6931,1.6951,1.695,1.6949,1.6925,1.6921,1.6918,0,0,0,0,0,0,1.6773,1.6802,1.6812,1.6817,1.6831,1.6855,1.6855,1.6868,1.6879,1.6881,1.6903,1.6908,1.6911,1.6922,1.6926,1.6929,1.6942,1.6941,1.6922,1.6919,1.6916,1.6913,1.6947,0,0,0,0,0,1.6768,1.6776,1.68,1.6803,1.6809,1.6831,1.6837,1.685,1.6865,1.6871,1.6886,1.6899,1.6909,1.6914,1.6924,1.6925,1.693,1.6924,1.6921,1.6918,1.6917,1.6917,1.6914,1.6945,1.6945,1.6945,0,0,1.6757,1.6773,1.6777,1.6798,1.681,1.6817,1.6835,1.6843,1.6848,1.6872,1.6878,1.689,1.6906,1.6909,1.6912,1.6919,1.691,1.6917,1.6915,1.6915,1.6916,1.6913,1.691,1.6944,1.6945,1.6945,0,0,1.674,1.6754,1.6757,1.6768,1.6786,1.6801,1.6801,1.6823,1.6831,1.6839,1.6856,1.6862,1.6878,1.6889,1.6896,1.6882,1.6894,1.6884,1.6869,1.6869,1.6866,1.6864,1.6858,1.6855,1.6884,1.6883,1.6883,0,1.6724,1.6736,1.6757,1.6762,1.677,1.6792,1.6794,1.6804,1.6824,1.6829,1.6836,1.6856,1.6869,1.6874,1.687,1.6876,1.6876,1.6882,1.6865,1.6863,1.6862,1.6856,1.6853,1.6882,1.6882,1.6882,1.6882,0,1.6715,1.6723,1.6723,1.6742,1.675,1.6754,1.6773,1.6779,1.6791,1.6803,1.6809,1.6825,1.6838,1.684,1.6852,1.6847,1.685,1.6861,1.6874,1.6857,1.6852,1.685,1.688,1.6881,1.6881,1.6881,0,0,1.6683,1.6712,1.6712,1.672,1.674,1.6747,1.6751,1.6763,1.6767,1.678,1.6783,1.6795,1.6805,1.6813,1.6826,1.6826,1.6812,1.6837,1.6838,1.6831,1.6805,1.6796,1.6793,1.682,1.682,1.682,1.6803,0,1.667,1.6679,1.6696,1.67,1.6706,1.6726,1.673,1.6742,1.6754,1.6761,1.6774,1.6782,1.6795,1.6799,1.68,1.6813,1.6807,1.6815,1.6823,1.6823,1.6817,1.679,1.6781,1.6765,1.6801,1.6801,1.6801,0,1.6655,1.6666,1.667,1.6689,1.6692,1.6695,1.6707,1.6714,1.6727,1.6736,1.6744,1.6759,1.6763,1.6775,1.678,1.6785,1.679,1.6796,1.6796,1.6797,1.681,1.6789,1.676,1.6757,1.6798,1.6798,1.6798,0,1.663,1.6646,1.665,1.6656,1.6679,1.668,1.6689,1.6703,1.6709,1.6719,1.6723,1.6734,1.6739,1.6747,1.6763,1.677,1.6766,1.678,1.6772,1.6771,1.677,1.677,1.6739,1.6774,1.6774,1.6774,1.6774,0,1.6613,1.6614,1.6639,1.6641,1.6643,1.6662,1.6663,1.6674,1.6686,1.669,1.6708,1.6711,1.6733,1.6738,1.6751,1.6752,1.6755,1.6761,1.6764,1.6759,1.6758,1.6761,1.6763,1.6773,1.6773,1.6774,1.6774,0,1.6585,1.6602,1.6608,1.6628,1.6632,1.6632,1.6649,1.6652,1.6664,1.6669,1.6671,1.669,1.6697,1.6714,1.6726,1.6734,1.6732,1.6738,1.6727,1.6729,1.672,1.672,1.669,1.6687,1.6724,1.6724,1.6723,0,1.6573,1.6574,1.6594,1.6598,1.6606,1.6612,1.6618,1.6637,1.6642,1.6656,1.6657,1.6665,1.6673,1.6683,1.6697,1.6706,1.6712,1.6701,1.6714,1.6708,1.671,1.671,1.6709,1.6698,1.6698,1.6697,1.6697,0,1.6548,1.6556,1.6564,1.6574,1.658,1.6589,1.6599,1.6601,1.6621,1.6626,1.6633,1.6639,1.665,1.6658,1.6668,1.6677,1.669,1.6693,1.6691,1.6685,1.6678,1.6681,1.6719,1.6693,1.6694,1.6694,1.6694,1.6694,1.6527,1.6529,1.6542,1.655,1.6559,1.6567,1.657,1.6582,1.6588,1.6599,1.6609,1.6615,1.6627,1.6642,1.665,1.6654,1.6661,1.6659,1.6658,1.6657,1.6654,1.6678,1.6656,1.6656,1.6656,1.6656,1.6657,0,1.6503,1.6512,1.6519,1.6531,1.6536,1.6548,1.6559,1.6562,1.6567,1.6578,1.6584,1.6592,1.6599,1.6613,1.6621,1.6622,1.6627,1.6623,1.6623,1.6624,1.6648,1.6648,1.6618,1.6618,1.6618,1.6618,1.6618,1.6618,1.6491,1.6493,1.6502,1.6508,1.6517,1.6523,1.6528,1.6535,1.6543,1.655,1.6556,1.6566,1.6577,1.6586,1.6592,1.6596,1.6598,1.6591,1.6597,1.6619,1.6623,1.6626,1.6626,1.6592,1.6591,1.6572,1.6572,1.6572]}]]